{"data":{"norad_id":48554,"epoch":"2026-05-25T05:18:32.175072Z","epoch_age_seconds":58953,"freshness":"FRESH","line1":"1 48554U 21041B   26145.22120573  .00000818  00000+0  38121-4 0  9999","line2":"2 48554  53.1593 130.7548 0001431  86.5636 273.5529 15.31700608277005","mean_motion":15.31700608,"eccentricity":0.0001431,"inclination_deg":53.1593,"raan_deg":130.7548,"arg_perigee_deg":86.5636,"mean_anomaly_deg":273.5529,"bstar":3.8121e-5,"rev_number":27700,"period_min":94.013150643079,"perigee_km":469.75810877122,"apogee_km":471.71825684855,"semimajor_km":6848.8751828099,"source":"CELESTRAK","updated_at":"2026-05-25T13:38:16.724353Z"}}